When you browse on this site, cookies collect data to enhance your experience and personalize the content and advertising you see.
Visit our Privacy Policy to learn more. By continuing to use the site, you agree to this use of cookies and data.
  • In Deutschland
  • Länderverzeichnis
  • Für 7 Tage
  • Wassertemperatur
  • Wetterkarte
  • Widgets
  • user-avatar
    Anmelden

    Stündliche Wetter Myszadla

    Heute, 27 Mai, Mittwoch

    Zeit Temperatur Niederschläge Wind Luftdruck Luftfeuchtigkeit
    00:00 +9°C° 0 mm 3 m/S 762 mmHg 94%
    01:00 +9°C° 0 mm 3 m/S 762 mmHg 95%
    02:00 +8°C° 0 mm 3 m/S 762 mmHg 95%
    03:00 +8°C° 0 mm 3 m/S 762 mmHg 95%
    04:00 +8°C° 0 mm 3 m/S 762 mmHg 95%
    05:00 +9°C° 0 mm 3 m/S 762 mmHg 89%
    06:00 +11°C° 0 mm 3 m/S 762 mmHg 84%
    07:00 +13°C° 0 mm 4 m/S 762 mmHg 78%
    08:00 +14°C° 0 mm 4 m/S 762 mmHg 72%
    09:00 +17°C° 0 mm 4 m/S 762 mmHg 66%
    10:00 +18°C° 0 mm 4 m/S 761 mmHg 60%
    11:00 +19°C° 0.1 mm 5 m/S 761 mmHg 58%
    12:00 +19°C° 0.1 mm 5 m/S 761 mmHg 56%
    13:00 +20°C° 0.1 mm 5 m/S 760 mmHg 54%
    14:00 +19°C° 0 mm 5 m/S 760 mmHg 55%
    15:00 +19°C° 0 mm 5 m/S 760 mmHg 57%
    16:00 +19°C° 0 mm 5 m/S 760 mmHg 58%
    17:00 +17°C° 0 mm 4 m/S 760 mmHg 64%
    18:00 +16°C° 0 mm 3 m/S 759 mmHg 70%
    19:00 +13°C° 0 mm 3 m/S 759 mmHg 75%
    20:00 +13°C° 0 mm 2 m/S 759 mmHg 80%
    21:00 +12°C° 0 mm 2 m/S 759 mmHg 85%
    22:00 +10°C° 0 mm 2 m/S 759 mmHg 90%
    23:00 +10°C° 0 mm 2 m/S 759 mmHg 91%

    Morgen, 28 Mai, Donnerstag

    Zeit Temperatur Niederschläge Wind Luftdruck Luftfeuchtigkeit
    00:00 +9°C° 0 mm 2 m/S 759 mmHg 92%
    01:00 +9°C° 0 mm 2 m/S 759 mmHg 93%
    02:00 +8°C° 0 mm 2 m/S 759 mmHg 93%
    03:00 +9°C° 0 mm 1 m/S 758 mmHg 92%
    04:00 +9°C° 0 mm 1 m/S 758 mmHg 92%
    05:00 +11°C° 0 mm 1 m/S 758 mmHg 86%
    06:00 +12°C° 0 mm 2 m/S 758 mmHg 79%
    07:00 +14°C° 0 mm 2 m/S 758 mmHg 73%
    08:00 +15°C° 0.1 mm 2 m/S 758 mmHg 69%
    09:00 +17°C° 0.1 mm 2 m/S 758 mmHg 64%
    10:00 +18°C° 0.1 mm 3 m/S 758 mmHg 60%
    11:00 +18°C° 0.2 mm 3 m/S 757 mmHg 60%
    12:00 +18°C° 0.2 mm 4 m/S 757 mmHg 61%
    13:00 +19°C° 0.2 mm 4 m/S 756 mmHg 61%
    14:00 +18°C° 0.3 mm 4 m/S 756 mmHg 64%
    15:00 +18°C° 0.3 mm 4 m/S 756 mmHg 67%
    16:00 +17°C° 0.3 mm 4 m/S 756 mmHg 70%
    17:00 +15°C° 0.2 mm 4 m/S 756 mmHg 75%
    18:00 +14°C° 0.2 mm 3 m/S 756 mmHg 79%
    19:00 +14°C° 0.2 mm 3 m/S 756 mmHg 84%
    20:00 +13°C° 0 mm 3 m/S 756 mmHg 87%
    21:00 +12°C° 0 mm 4 m/S 756 mmHg 90%
    22:00 +11°C° 0 mm 4 m/S 756 mmHg 94%
    23:00 +10°C° 0 mm 4 m/S 756 mmHg 94%

    übermorgen, 29 Mai, Freitag

    Zeit Temperatur Niederschläge Wind Luftdruck Luftfeuchtigkeit
    00:00 +9°C° 0 mm 5 m/S 756 mmHg 94%
    01:00 +9°C° 0 mm 5 m/S 756 mmHg 94%
    02:00 +8°C° 0 mm 5 m/S 756 mmHg 91%
    03:00 +7°C° 0 mm 5 m/S 756 mmHg 89%
    04:00 +6°C° 0 mm 5 m/S 755 mmHg 87%
    05:00 +7°C° 0 mm 5 m/S 756 mmHg 84%
    06:00 +8°C° 0 mm 6 m/S 756 mmHg 80%
    07:00 +9°C° 0 mm 6 m/S 756 mmHg 76%
    08:00 +11°C° 0 mm 7 m/S 755 mmHg 72%
    09:00 +14°C° 0 mm 7 m/S 755 mmHg 67%
    10:00 +15°C° 0 mm 8 m/S 755 mmHg 62%
    11:00 +16°C° 0 mm 8 m/S 755 mmHg 60%
    12:00 +16°C° 0 mm 8 m/S 755 mmHg 58%
    13:00 +17°C° 0 mm 8 m/S 754 mmHg 56%
    14:00 +16°C° 0.1 mm 7 m/S 754 mmHg 58%
    15:00 +16°C° 0.1 mm 7 m/S 754 mmHg 60%
    16:00 +15°C° 0.1 mm 7 m/S 754 mmHg 62%
    17:00 +14°C° 0.1 mm 6 m/S 754 mmHg 67%
    18:00 +13°C° 0.1 mm 5 m/S 754 mmHg 72%
    19:00 +12°C° 0.1 mm 4 m/S 753 mmHg 77%
    20:00 +12°C° 0.2 mm 5 m/S 753 mmHg 78%
    21:00 +10°C° 0.2 mm 5 m/S 753 mmHg 78%
    22:00 +10°C° 0.2 mm 5 m/S 753 mmHg 79%
    23:00 +10°C° 0 mm 6 m/S 753 mmHg 78%

    30 Mai, Samstag

    Zeit Temperatur Niederschläge Wind Luftdruck Luftfeuchtigkeit
    00:00 +9°C° 0 mm 6 m/S 752 mmHg 77%
    01:00 +9°C° 0 mm 6 m/S 752 mmHg 75%
    02:00 +8°C° 0.9 mm 6 m/S 751 mmHg 81%
    03:00 +8°C° 0.9 mm 6 m/S 751 mmHg 87%
    04:00 +6°C° 0.9 mm 7 m/S 751 mmHg 92%
    05:00 +7°C° 1 mm 6 m/S 751 mmHg 93%
    06:00 +7°C° 1 mm 6 m/S 751 mmHg 93%
    07:00 +7°C° 1 mm 6 m/S 750 mmHg 94%
    08:00 +8°C° 0.7 mm 6 m/S 750 mmHg 94%
    09:00 +8°C° 0.7 mm 6 m/S 750 mmHg 94%
    10:00 +8°C° 0.7 mm 6 m/S 750 mmHg 94%
    11:00 +9°C° 0.1 mm 6 m/S 750 mmHg 92%
    12:00 +10°C° 0.1 mm 6 m/S 750 mmHg 91%
    13:00 +10°C° 0.1 mm 5 m/S 750 mmHg 89%
    14:00 +12°C° 0 mm 5 m/S 750 mmHg 89%
    15:00 +13°C° 0 mm 5 m/S 750 mmHg 88%
    16:00 +13°C° 0 mm 4 m/S 749 mmHg 87%
    17:00 +13°C° 0 mm 4 m/S 749 mmHg 88%
    18:00 +13°C° 0 mm 5 m/S 749 mmHg 90%
    19:00 +13°C° 0 mm 5 m/S 749 mmHg 91%
    20:00 +13°C° 1 mm 5 m/S 749 mmHg 93%
    21:00 +13°C° 1 mm 5 m/S 748 mmHg 95%
    22:00 +13°C° 1 mm 5 m/S 748 mmHg 97%
    23:00 +13°C° 2.2 mm 6 m/S 748 mmHg 97%

    31 Mai, Sonntag

    Zeit Temperatur Niederschläge Wind Luftdruck Luftfeuchtigkeit
    00:00 +13°C° 2.2 mm 6 m/S 747 mmHg 96%
    01:00 +13°C° 2.2 mm 6 m/S 747 mmHg 96%
    02:00 +13°C° 2.2 mm 6 m/S 747 mmHg 95%
    03:00 +13°C° 2.2 mm 6 m/S 747 mmHg 95%
    04:00 +12°C° 2.2 mm 7 m/S 747 mmHg 95%
    05:00 +12°C° 0.3 mm 7 m/S 747 mmHg 93%
    06:00 +14°C° 0.3 mm 7 m/S 747 mmHg 92%
    07:00 +13°C° 0.3 mm 8 m/S 747 mmHg 90%
    08:00 +16°C° 0 mm 8 m/S 747 mmHg 86%
    09:00 +17°C° 0 mm 9 m/S 747 mmHg 82%
    10:00 +18°C° 0 mm 9 m/S 748 mmHg 77%
    11:00 +18°C° 0 mm 9 m/S 748 mmHg 77%
    12:00 +18°C° 0 mm 8 m/S 748 mmHg 77%
    13:00 +18°C° 0 mm 8 m/S 749 mmHg 77%
    14:00 +18°C° 0 mm 8 m/S 749 mmHg 78%
    15:00 +18°C° 0 mm 7 m/S 749 mmHg 79%
    16:00 +17°C° 0 mm 6 m/S 750 mmHg 80%
    17:00 +17°C° 0 mm 6 m/S 750 mmHg 81%
    18:00 +17°C° 0 mm 6 m/S 751 mmHg 81%
    19:00 +16°C° 0 mm 5 m/S 751 mmHg 82%
    20:00 +16°C° 0 mm 5 m/S 752 mmHg 82%
    21:00 +16°C° 0 mm 5 m/S 752 mmHg 82%
    22:00 +16°C° 0 mm 5 m/S 752 mmHg 82%
    23:00 +15°C° 0 mm 5 m/S 753 mmHg 80%

    1 Juni, Montag

    Zeit Temperatur Niederschläge Wind Luftdruck Luftfeuchtigkeit
    00:00 +15°C° 0 mm 5 m/S 753 mmHg 78%
    01:00 +15°C° 0 mm 5 m/S 753 mmHg 76%
    02:00 +14°C° 0 mm 5 m/S 753 mmHg 76%
    03:00 +13°C° 0 mm 5 m/S 754 mmHg 76%
    04:00 +13°C° 0 mm 5 m/S 754 mmHg 76%
    05:00 +13°C° 0 mm 5 m/S 754 mmHg 76%
    06:00 +14°C° 0 mm 5 m/S 755 mmHg 76%
    07:00 +14°C° 0 mm 5 m/S 755 mmHg 76%
    08:00 +16°C° 0 mm 6 m/S 755 mmHg 71%
    09:00 +17°C° 0 mm 6 m/S 756 mmHg 67%
    10:00 +19°C° 0 mm 6 m/S 756 mmHg 62%
    11:00 +20°C° 0 mm 6 m/S 756 mmHg 60%
    12:00 +20°C° 0 mm 6 m/S 756 mmHg 58%
    13:00 +20°C° 0 mm 6 m/S 756 mmHg 56%
    14:00 +20°C° 0 mm 6 m/S 756 mmHg 57%
    15:00 +20°C° 0 mm 5 m/S 756 mmHg 58%
    16:00 +19°C° 0 mm 5 m/S 756 mmHg 59%
    17:00 +17°C° 0 mm 5 m/S 756 mmHg 65%
    18:00 +17°C° 0 mm 4 m/S 756 mmHg 71%
    19:00 +16°C° 0 mm 3 m/S 756 mmHg 77%
    20:00 +14°C° 0 mm 3 m/S 756 mmHg 80%
    21:00 +12°C° 0 mm 3 m/S 757 mmHg 82%
    22:00 +11°C° 0 mm 3 m/S 757 mmHg 85%
    23:00 +12°C° 0 mm 2 m/S 757 mmHg 85%
    Mehr zeigen